TRA38B LEBL-EHAM

Flight info

Callsign TRA38B
Flight time N/A
Altitude 30000
Route OLOXO DCT OKABI/N0445F360 DCT TOU DCT ADABI DCT BOKNO UN858 VANAD UN874 BAMES UT191 PODEM UN873 BAZOS DCT LUMIL DCT BELOB UY873 DENUT
Aircraft B738/M-SDE2E3FGHIRWXY/LB1

Departure

Time 2026-05-06 18:27
Airport Josep Tarradellas Barcelona-El Prat Airport (LEBL)

Arrival

Time N/A
Airport Amsterdam Airport Schiphol (EHAM)
Time Latitude Longitude Altitude Speed Heading
2026-05-06 17:19 41.30254 2.07876 21 ft 0 kts 38°
2026-05-06 18:13 41.30251 2.07874 20 ft 3 kts 38°
2026-05-06 18:14 41.30232 2.07858 20 ft 2 kts 16°
2026-05-06 18:14 41.30209 2.07856 21 ft 4 kts 338°
2026-05-06 18:14 41.30189 2.07868 21 ft 4 kts 335°
2026-05-06 18:14 41.30164 2.07883 23 ft 4 kts 336°
2026-05-06 18:15 41.30141 2.07897 21 ft 4 kts 340°
2026-05-06 18:15 41.30118 2.07900 21 ft 4 kts 32°
2026-05-06 18:15 41.30104 2.07877 18 ft 4 kts 65°
2026-05-06 18:15 41.30096 2.07854 17 ft 0 kts 65°
2026-05-06 18:19 41.30096 2.07855 17 ft 0 kts 65°
2026-05-06 18:20 41.30113 2.07903 21 ft 10 kts 66°
2026-05-06 18:20 41.30149 2.08008 17 ft 14 kts 65°
2026-05-06 18:20 41.30186 2.08117 20 ft 10 kts 67°
2026-05-06 18:20 41.30163 2.08191 17 ft 10 kts 153°
2026-05-06 18:21 41.30098 2.08232 18 ft 10 kts 156°
2026-05-06 18:21 41.30032 2.08269 17 ft 11 kts 156°
2026-05-06 18:21 41.29964 2.08309 19 ft 10 kts 156°
2026-05-06 18:21 41.29899 2.08349 25 ft 10 kts 156°
2026-05-06 18:22 41.29831 2.08390 21 ft 13 kts 155°
2026-05-06 18:22 41.29714 2.08460 16 ft 21 kts 156°
2026-05-06 18:22 41.29581 2.08540 16 ft 21 kts 156°
2026-05-06 18:22 41.29452 2.08617 13 ft 20 kts 155°
2026-05-06 18:23 41.29327 2.08692 16 ft 19 kts 156°
2026-05-06 18:23 41.29204 2.08768 15 ft 21 kts 156°
2026-05-06 18:23 41.29065 2.08850 15 ft 22 kts 155°
2026-05-06 18:23 41.28964 2.08915 15 ft 11 kts 142°
2026-05-06 18:24 41.28958 2.09010 15 ft 11 kts 67°
2026-05-06 18:24 41.28992 2.09110 18 ft 13 kts 64°
2026-05-06 18:24 41.29037 2.09242 16 ft 20 kts 65°
2026-05-06 18:24 41.29106 2.09442 18 ft 25 kts 65°
2026-05-06 18:25 41.29176 2.09648 16 ft 24 kts 65°
2026-05-06 18:25 41.29240 2.09835 17 ft 21 kts 66°
2026-05-06 18:25 41.29305 2.09989 16 ft 18 kts 63°
2026-05-06 18:25 41.29356 2.10138 17 ft 16 kts 65°
2026-05-06 18:26 41.29344 2.10259 13 ft 13 kts 139°
2026-05-06 18:26 41.29267 2.10306 13 ft 11 kts 158°
2026-05-06 18:26 41.29202 2.10271 15 ft 11 kts 239°
2026-05-06 18:26 41.29158 2.10142 18 ft 34 kts 246°
2026-05-06 18:27 41.28938 2.09501 19 ft 116 kts 245°
2026-05-06 18:27 41.28516 2.08260 183 ft 167 kts 243°
2026-05-06 18:27 41.28031 2.06874 1238 ft 155 kts 240°
2026-05-06 18:27 41.27341 2.05776 2126 ft 173 kts 208°
2026-05-06 18:28 41.26067 2.05475 2675 ft 205 kts 186°
2026-05-06 18:28 41.24591 2.05322 3276 ft 218 kts 191°
2026-05-06 18:28 41.23065 2.04985 4044 ft 223 kts 194°
2026-05-06 18:28 41.21517 2.04585 4822 ft 236 kts 194°
2026-05-06 18:29 41.19879 2.04135 5715 ft 238 kts 196°
2026-05-06 18:29 41.18431 2.03195 6729 ft 236 kts 228°
2026-05-06 18:29 41.17408 2.01481 7590 ft 239 kts 235°
2026-05-06 18:29 41.16389 1.99721 8560 ft 242 kts 235°
2026-05-06 18:30 41.15354 1.97949 9548 ft 244 kts 235°
2026-05-06 18:30 41.14321 1.96184 10437 ft 247 kts 234°
2026-05-06 18:30 41.13324 1.94319 11289 ft 250 kts 245°
2026-05-06 18:30 41.12759 1.92095 11987 ft 260 kts 256°
2026-05-06 18:31 41.12256 1.89767 12840 ft 264 kts 255°
2026-05-06 18:31 41.11731 1.87421 13757 ft 267 kts 254°
2026-05-06 18:31 41.11464 1.84987 14543 ft 270 kts 276°
2026-05-06 18:31 41.11899 1.82477 14918 ft 294 kts 288°
2026-05-06 18:32 41.12673 1.79840 15126 ft 320 kts 291°
2026-05-06 18:32 41.13652 1.77068 15360 ft 344 kts 303°
2026-05-06 18:32 41.15357 1.74787 15993 ft 355 kts 321°
2026-05-06 18:32 41.17459 1.73094 16853 ft 359 kts 328°
2026-05-06 18:33 41.19668 1.71517 17691 ft 362 kts 329°
2026-05-06 18:33 41.22044 1.70314 18398 ft 374 kts 346°
2026-05-06 18:33 41.24656 1.69915 19076 ft 380 kts 350°
2026-05-06 18:33 41.27300 1.69559 19671 ft 386 kts 349°
2026-05-06 18:34 41.29990 1.69176 20280 ft 390 kts 348°
2026-05-06 18:34 41.32698 1.68768 20953 ft 393 kts 348°
2026-05-06 18:34 41.35395 1.68348 21623 ft 397 kts 348°
2026-05-06 18:34 41.38189 1.67909 22250 ft 401 kts 347°
2026-05-06 18:35 41.40937 1.67476 22835 ft 405 kts 347°
2026-05-06 18:35 41.43750 1.67034 23421 ft 409 kts 347°
2026-05-06 18:35 41.46590 1.66590 23927 ft 413 kts 347°
2026-05-06 18:35 41.49454 1.66141 24402 ft 417 kts 347°
2026-05-06 18:36 41.52347 1.65686 24870 ft 420 kts 347°
2026-05-06 18:36 41.55266 1.65228 25344 ft 424 kts 347°
2026-05-06 18:36 41.58107 1.64785 25929 ft 423 kts 347°
2026-05-06 18:36 41.61031 1.64332 26538 ft 423 kts 347°
2026-05-06 18:37 41.63921 1.63883 27089 ft 424 kts 347°
2026-05-06 18:37 41.65897 1.63575 27499 ft 424 kts 347°
2026-05-06 18:37 41.69765 1.62972 28331 ft 422 kts 346°
2026-05-06 18:37 41.72687 1.62516 28951 ft 422 kts 346°
2026-05-06 18:38 41.75594 1.62060 29543 ft 422 kts 346°
2026-05-06 18:38 41.78513 1.61602 29965 ft 424 kts 346°
2026-05-06 18:38 41.84400 1.60675 29936 ft 423 kts 346°
2026-05-06 18:39 41.90167 1.59773 29938 ft 420 kts 346°
2026-05-06 18:40 41.98919 1.58388 29967 ft 424 kts 346°
2026-05-06 18:40 42.04787 1.57461 29947 ft 424 kts 346°
2026-05-06 18:41 42.10636 1.56537 29936 ft 422 kts 346°
2026-05-06 18:41 42.16404 1.55624 29928 ft 419 kts 346°
2026-05-06 18:42 42.22195 1.54703 29951 ft 418 kts 346°
2026-05-06 18:42 42.27981 1.53779 29947 ft 419 kts 346°
2026-05-06 18:43 42.33767 1.52856 29956 ft 419 kts 346°
2026-05-06 18:43 42.39498 1.51941 29964 ft 416 kts 347°
2026-05-06 18:44 42.45213 1.51028 29983 ft 411 kts 347°
2026-05-06 18:44 42.50868 1.50124 29964 ft 407 kts 347°
2026-05-06 18:45 42.56476 1.49225 29982 ft 405 kts 347°
2026-05-06 18:45 42.62036 1.48332 30015 ft 405 kts 348°
2026-05-06 18:46 42.67619 1.47433 30013 ft 403 kts 348°
2026-05-06 18:46 42.73207 1.46533 30015 ft 405 kts 348°
2026-05-06 18:47 42.78768 1.45637 30008 ft 404 kts 348°
2026-05-06 18:47 42.84337 1.44738 29999 ft 403 kts 348°
2026-05-06 18:48 42.89902 1.43836 30010 ft 403 kts 348°
2026-05-06 18:48 42.95480 1.42935 30017 ft 403 kts 348°
2026-05-06 18:49 43.01050 1.42030 30028 ft 403 kts 348°
2026-05-06 18:49 43.06594 1.41124 30015 ft 404 kts 349°
2026-05-06 18:50 43.12174 1.40214 30007 ft 404 kts 349°
2026-05-06 18:50 43.17749 1.39304 30004 ft 403 kts 349°
2026-05-06 18:51 43.23319 1.38392 30022 ft 403 kts 349°
2026-05-06 18:51 43.28849 1.37485 29993 ft 402 kts 349°
2026-05-06 18:52 43.34393 1.36575 29994 ft 401 kts 349°
2026-05-06 18:52 43.39948 1.35660 29993 ft 401 kts 349°
2026-05-06 18:53 43.45474 1.34749 30003 ft 400 kts 349°
2026-05-06 18:53 43.50957 1.33844 29985 ft 399 kts 349°
2026-05-06 18:54 43.56458 1.32933 29989 ft 398 kts 349°
2026-05-06 18:54 43.61952 1.32022 29966 ft 398 kts 349°
2026-05-06 18:55 43.67444 1.31110 29971 ft 397 kts 349°
2026-05-06 18:55 43.72072 1.30105 29962 ft 394 kts 346°